Location: Hawaiian Village Mobile Home Park
(32.8359°N, 116.9792°W)
Time: 20:19:56
(UTC+00:00)

ADEOS - Pass Details

Date: 03 December 2021
Orbit: 792 x 795 km, 98.9° (Epoch: 28 January)

Event Time Altitude Azimuth Distance (km) Brightness Sun altitude
Rises 13:19:16 0° 12° (NNE) 3,300 6.7 -15.5°
Reaches altitude 10° 13:21:36 10° 11° (N) 2,367 6.0 -15.1°
Maximum altitude 13:26:50 82° 285° (WNW) 804 3.5 -14.0°
Drops below altitude 10° 13:32:02 10° 198° (SSW) 2,351 6.0 -13.0°
Sets 13:34:20 0° 197° (SSW) 3,276 6.8 -12.5°
